Weather History for Flagstaff, AZ

Change the Weather History Date:

Monday, November 22, 2010

  Actual Average Record
Temperature  
Mean Temperature 26 °F 34 °F  
Max Temperature 34 °F 48 °F 68 °F (1903)
Min Temperature 18 °F 21 °F -2 °F (1931)
Degree Days  
Heating Degree Days 39 31  
Month to date heating degree days 565 593  
Since 1 July heating degree days 1255 1476  
Cooling Degree Days 0 0  
Month to date cooling degree days 0 0  
Year to date cooling degree days 160 117  
Moisture  
Dew Point 22 °F    
Average Humidity 74    
Maximum Humidity 92    
Minimum Humidity 56    
Precipitation  
Precipitation 0.01 in 0.06 in 1.01 in (2013)
Month to date precipitation 1.58 1.26  
Year to date precipitation 24.28 19.49  
Snow  
Snow T in 0.50 in 5.00 in (1902)
Month to date snowfall 2.7 6.6  
Since 1 July snowfall 2.7 8.1  
Snow Depth -    
Sea Level Pressure  
Sea Level Pressure 29.98 in    
Wind  
Wind Speed 11 mph (SW)    
Max Wind Speed 25 mph    
Max Gust Speed 36 mph    
Visibility 10 miles    
Events Snow    
T = Trace of Precipitation, MM = Missing Value Source: NWS Daily Summary

Daily Weather History Graph

Daily Weather History Graph

Search for Another Location

Airport:

Trip Planner

Search our weather history database for the weather conditions in past years. The results will help you decide how hot, cold, wet, or windy it might be!

Date:

Astronomy

Nov. 22, 2010 Rise Set
Actual Time 7:08 AM MST 5:17 PM MST
Civil Twilight 6:40 AM MST 5:44 PM MST
Nautical Twilight 6:09 AM MST 6:15 PM MST
Astronomical Twilight 5:39 AM MST 6:45 PM MST
Moon 6:06 PM MST (11/22) 8:09 AM MST (11/22)
Length of Visible Light 11h 03m
Length of Day
10h 08m
Full, 99% of the Moon is Illuminated
Nov 22
Full
Nov 28
Last Quarter
Dec 5
New
Dec 13
First Quarter
Dec 21
Full

Hourly Weather History & Observations

Time (MST) Temp. Windchill Dew Point Humidity Pressure Visibility Wind Dir Wind Speed Gust Speed Precip Events Conditions
12:06 AM 30.2 °F 17.4 °F 28.4 °F 93% 29.92 in 5.0 mi SW 20.7 mph 29.9 mph 0.01 in Snow Light Snow
12:11 AM 30.2 °F 18.1 °F 28.4 °F 93% 29.92 in 1.8 mi SW 18.4 mph 29.9 mph 0.01 in Snow Light Snow
12:20 AM 30.2 °F 17.8 °F 26.6 °F 86% 29.93 in 2.0 mi SW 19.6 mph 26.5 mph 0.01 in Snow Light Snow
12:28 AM 30.2 °F 18.1 °F 26.6 °F 86% 29.93 in 9.0 mi WSW 18.4 mph 28.8 mph 0.01 in   Overcast
12:57 AM 30.0 °F 19.1 °F 24.1 °F 79% 29.89 in 10.0 mi SW 15.0 mph 25.3 mph 0.01 in   Scattered Clouds
1:05 AM 30.2 °F 19.3 °F 24.8 °F 80% 29.93 in 10.0 mi SW 15.0 mph 26.5 mph N/A   Mostly Cloudy
1:12 AM 30.2 °F 18.5 °F 24.8 °F 80% 29.93 in 10.0 mi SW 17.3 mph 26.5 mph N/A   Mostly Cloudy
1:34 AM 30.2 °F 17.4 °F 24.8 °F 80% 29.93 in 10.0 mi SW 20.7 mph 29.9 mph N/A   Scattered Clouds
1:57 AM 28.9 °F 17.7 °F 24.1 °F 82% 29.88 in 10.0 mi WSW 15.0 mph 24.2 mph N/A   Scattered Clouds
2:57 AM 28.9 °F 16.5 °F 25.0 °F 85% 29.86 in 10.0 mi SW 18.4 mph 26.5 mph N/A   Mostly Cloudy
3:11 AM 28.4 °F 18.5 °F 24.8 °F 86% 29.91 in 10.0 mi SW 11.5 mph 24.2 mph N/A   Overcast
3:48 AM 30.2 °F 19.8 °F 24.8 °F 80% 29.91 in 10.0 mi WSW 13.8 mph 24.2 mph N/A   Overcast
3:57 AM 30.0 °F 19.1 °F 25.0 °F 82% 29.88 in 10.0 mi WSW 15.0 mph 25.3 mph N/A   Overcast
4:16 AM 28.4 °F 17.5 °F 24.8 °F 86% 29.92 in 10.0 mi WSW 13.8 mph 20.7 mph N/A   Overcast
4:35 AM 28.4 °F 18.5 °F 24.8 °F 86% 29.92 in 10.0 mi WSW 11.5 mph - N/A   Overcast
4:57 AM 28.9 °F 19.8 °F 25.0 °F 85% 29.88 in 10.0 mi WSW 10.4 mph 18.4 mph N/A   Overcast
5:04 AM 28.4 °F 17.5 °F 24.8 °F 86% 29.91 in 10.0 mi SW 13.8 mph - N/A   Overcast
5:11 AM 28.4 °F 18.0 °F 24.8 °F 86% 29.91 in 10.0 mi SW 12.7 mph 20.7 mph N/A   Overcast
5:57 AM 28.9 °F 19.2 °F 25.0 °F 85% 29.88 in 10.0 mi SW 11.5 mph 18.4 mph N/A   Overcast
6:57 AM 28.9 °F 18.6 °F 24.1 °F 82% 29.89 in 10.0 mi SW 12.7 mph 23.0 mph N/A   Overcast
7:10 AM 28.4 °F 16.6 °F 23.0 °F 80% 29.93 in 10.0 mi SW 16.1 mph 24.2 mph N/A   Overcast
7:57 AM 28.0 °F 16.1 °F 23.0 °F 81% 29.92 in 10.0 mi WSW 16.1 mph 23.0 mph N/A   Overcast
8:10 AM 28.4 °F 18.0 °F 21.2 °F 74% 29.96 in 10.0 mi WSW 12.7 mph 25.3 mph N/A   Scattered Clouds
8:57 AM 28.9 °F 18.2 °F 21.0 °F 72% 29.98 in 10.0 mi WSW 13.8 mph 26.5 mph N/A   Mostly Cloudy
9:08 AM 28.4 °F 16.2 °F 21.2 °F 74% 30.01 in 10.0 mi WSW 17.3 mph 29.9 mph N/A   Mostly Cloudy
9:57 AM 30.0 °F 17.2 °F 21.0 °F 69% 29.98 in 10.0 mi SW 20.7 mph 34.5 mph N/A   Mostly Cloudy
10:57 AM 30.9 °F 18.7 °F 21.0 °F 67% 30.03 in 10.0 mi SW 19.6 mph 28.8 mph N/A   Mostly Cloudy
11:18 AM 28.4 °F 16.2 °F 19.4 °F 69% 30.05 in 10.0 mi WSW 17.3 mph 26.5 mph N/A   Scattered Clouds
11:57 AM 30.0 °F 18.7 °F 21.0 °F 69% 30.03 in 10.0 mi WSW 16.1 mph 21.9 mph N/A   Mostly Cloudy
12:04 PM 30.2 °F 19.8 °F 19.4 °F 64% 30.05 in 10.0 mi WSW 13.8 mph 20.7 mph N/A   Mostly Cloudy
12:57 PM 32.0 °F 22.5 °F 21.0 °F 64% 30.01 in 10.0 mi SW 12.7 mph 23.0 mph N/A   Mostly Cloudy
1:04 PM 32.0 °F 22.1 °F 19.4 °F 60% 30.04 in 10.0 mi WSW 13.8 mph - N/A   Scattered Clouds
1:31 PM 33.8 °F 25.8 °F 21.2 °F 60% 30.04 in 10.0 mi SW 10.4 mph 19.6 mph N/A   Mostly Cloudy
1:38 PM 33.8 °F 24.3 °F 19.4 °F 56% 30.04 in 10.0 mi SW 13.8 mph 19.6 mph N/A   Mostly Cloudy
1:57 PM 33.1 °F 23.0 °F 19.0 °F 56% 30.01 in 10.0 mi WSW 15.0 mph - N/A   Mostly Cloudy
2:57 PM 33.1 °F 22.2 °F 21.0 °F 61% 30.01 in 10.0 mi SSW 17.3 mph - N/A   Scattered Clouds
3:57 PM 33.1 °F 23.4 °F 19.9 °F 59% 30.02 in 10.0 mi SW 13.8 mph 19.6 mph N/A   Scattered Clouds
4:57 PM 30.9 °F 23.5 °F 21.9 °F 69% 30.05 in 10.0 mi SW 8.1 mph - N/A   Clear
5:57 PM 27.0 °F 23.0 °F 21.9 °F 81% 30.08 in 10.0 mi West 3.5 mph - N/A   Mostly Cloudy
6:57 PM 26.1 °F - 21.0 °F 81% 30.09 in 10.0 mi Calm Calm - N/A   Scattered Clouds
7:57 PM 24.1 °F 19.7 °F 19.9 °F 84% 30.11 in 10.0 mi WNW 3.5 mph - N/A   Clear
8:57 PM 21.9 °F - 19.0 °F 89% 30.11 in 10.0 mi Calm Calm - N/A   Clear
9:57 PM 19.9 °F - 17.1 °F 89% 30.12 in 10.0 mi Calm Calm - N/A   Clear
10:57 PM 21.0 °F - 18.0 °F 88% 30.12 in 10.0 mi Calm Calm - N/A   Clear
11:57 PM 18.0 °F - 15.1 °F 88% 30.13 in 10.0 mi Calm Calm - N/A   Clear